User: anonymous   Login
Location: Donald C. Martin Observatory
(38.3885°N, 82.3916°W)
Time: 01:30:56
(UTC-04:00)
Language:

Cosmos 1484 Rocket - Orbit

View from above orbital plane
View from above orbital plane
View from above satellite
View from above satellite

Ground track
Ground track

The orbit data is extracted from the following two-line orbital elements,

1 14208U 83075B   17083.96248732 +.00000514 +00000-0 +34548-4 0  9996
2 14208 097.3438 097.9787 0040990 062.9839 297.5566 15.10303452834499
Epoch (UTC): 24 March 2017 23:05:58
Eccentricity: 0.0040990
inclination: 97.3438°
perigee height: 507 km
apogee height: 563 km
right ascension of ascending node: 97.9787°
argument of perigee: 62.9839°
revolutions per day: 15.10303452
mean anomaly at epoch: 297.5566°
orbit number at epoch: 83449

The dashed part of the orbit path shows where the satellite is in the earth's shadow,  

DLR